Location: Domicella
(40.8833°N, 14.5833°E)
Time: 11:39:20
(UTC+00:00)

CZ-4B R/B - Pass Details

Date: 15 May 2026
Orbit: 700 x 797 km, 98.9° (Epoch: 6 June)

Event Time Altitude Azimuth Distance (km) Brightness Sun altitude
Exits shadow 21:23:16 32° 247° (WSW) 1,203 4.5 -26.2°
Maximum altitude 21:23:52 33° 262° (W) 1,177 4.5 -26.2°
Drops below altitude 10° 21:28:13 10° 327° (NNW) 2,205 6.9 -26.6°
Sets 21:30:43 0° 337° (NNW) 3,144 8.0 -26.7°
